EW4210 Weather Reports


Display with metric or nautical units.
time (UTC)temp
F
wind
direction
speed
MPH
gust
MPH
rain 1hr
in
rain 24hr
in
rain mn
in
humidity
%
barometer
mb
20260903031517 84 88 0.0 1.0 0.00 0.00 0.00 74 1013.6
20260903030049 84 88 0.0 0.0 0.00 0.00 0.00 72 1013.6
20260903024542 85 88 0.0 2.0 0.00 0.00 0.00 71 1013.6
20260903023019 86 88 0.0 3.0 0.00 0.00 0.00 69 1013.4
20260903021508 87 101 0.0 0.0 0.00 0.00 0.00 67 1013.4
20260903020058 87 95 0.0 4.0 0.00 0.00 0.00 67 1013.3
20260903014542 87 102 1.0 3.0 0.00 0.00 0.00 66 1013.2
20260903013021 87 84 0.0 3.0 0.00 0.00 0.00 66 1013.0
20260903011507 87 88 0.0 3.0 0.00 0.00 0.00 66 1012.9
20260903010046 88 107 0.0 1.0 0.00 0.00 0.00 65 1012.7
20260903004533 89 93 1.0 3.0 0.00 0.00 0.00 64 1012.7
20260903003014 89 94 0.0 2.0 0.00 0.00 0.00 63 1012.6
20260903001510 90 101 1.0 4.0 0.00 0.00 0.00 61 1012.6
20260903000050 91 115 1.0 4.0 0.00 0.00 0.00 59 1012.7
20260902234536 91 80 0.0 6.0 0.00 0.00 0.00 58 1012.6
20260902233019 92 78 0.0 4.0 0.00 0.00 0.00 57 1012.7
20260902231510 92 65 1.0 4.0 0.00 0.00 0.00 56 1012.6
20260902230043 93 107 1.0 4.0 0.00 0.00 0.00 55 1012.8
20260902224524 93 90 2.0 7.0 0.00 0.00 0.00 54 1012.9
20260902223010 93 104 2.0 8.0 0.00 0.00 0.00 53 1013.0
20260902221542 94 72 2.0 7.0 0.00 0.00 0.00 53 1013.0
20260902220024 94 86 3.0 8.0 0.00 0.00 0.00 53 1013.2
20260902214504 94 61 1.0 6.0 0.00 0.00 0.00 53 1013.3
20260902213046 94 78 1.0 3.0 0.00 0.00 0.00 52 1013.4
20260902211526 94 48 2.0 7.0 0.00 0.00 0.00 53 1013.4
20260902210012 95 137 3.0 8.0 0.00 0.00 0.00 52 1013.4
20260902204554 94 116 1.0 10.0 0.00 0.00 0.00 54 1013.6
20260902203033 93 88 2.0 8.0 0.00 0.00 0.00 55 1013.7
20260902201512 94 67 2.0 5.0 0.00 0.00 0.00 57 1013.7
20260902200052 95 128 2.0 5.0 0.00 0.00 0.00 54 1013.9
20260902194539 95 81 2.0 7.0 0.00 0.00 0.00 55 1014.1
20260902193014 94 62 0.0 4.0 0.00 0.00 0.00 55 1014.4
20260902191600 95 47 1.0 9.0 0.00 0.00 0.00 54 1014.8
20260902190040 95 106 2.0 8.0 0.00 0.00 0.00 52 1015.0
20260902184521 95 92 2.0 7.0 0.00 0.00 0.00 52 1015.1
20260902183109 94 139 1.0 7.0 0.00 0.00 0.00 54 1015.3
20260902181532 94 266 1.0 5.0 0.00 0.00 0.00 54 1015.7
20260902180020 93 63 2.0 7.0 0.00 0.00 0.00 57 1015.8
20260902174547 93 159 2.0 7.0 0.00 0.00 0.00 55 1016.0
20260902173036 94 74 1.0 9.0 0.00 0.00 0.00 57 1016.2
20260902171511 93 166 0.0 9.0 0.00 0.00 0.00 58 1016.5
20260902170047 92 346 0.0 7.0 0.00 0.00 0.00 57 1016.6
20260902164534 92 97 3.0 7.0 0.00 0.00 0.00 60 1016.7
20260902163012 93 86 3.0 6.0 0.00 0.00 0.00 57 1016.9
20260902161551 93 144 0.0 2.0 0.00 0.00 0.00 59 1016.9
20260902160030 92 77 1.0 4.0 0.00 0.00 0.00 60 1017.0
20260902154512 91 247 1.0 2.0 0.00 0.00 0.00 62 1016.9
20260902153045 89 319 0.0 4.0 0.00 0.00 0.00 64 1016.9
20260902151525 89 276 1.0 3.0 0.00 0.00 0.00 63 1016.9
20260902150007 89 325 0.0 2.0 0.00 0.00 0.00 65 1016.9
20260902144541 87 290 0.0 3.0 0.00 0.00 0.00 68 1016.8
20260902143023 87 281 1.0 3.0 0.00 0.00 0.00 69 1016.7
20260902141557 86 281 0.0 3.0 0.00 0.00 0.00 71 1016.8
20260902140043 85 281 0.0 2.0 0.00 0.00 0.00 71 1016.8
20260902134513 83 92 0.0 0.0 0.00 0.00 0.00 77 1016.7
20260902133055 81 92 0.0 0.0 0.00 0.00 0.00 83 1016.7
20260902131543 78 92 0.0 0.0 0.00 0.00 0.00 89 1016.6
20260902130010 76 92 0.0 0.0 0.00 0.00 0.00 91 1016.5
20260902124559 75 92 0.0 0.0 0.00 0.00 0.00 92 1016.4
20260902123031 74 92 0.0 0.0 0.00 0.00 0.00 92 1016.3
20260902121514 74 92 0.0 0.0 0.00 0.00 0.00 92 1016.3
20260902120053 73 92 0.0 0.0 0.00 0.00 0.00 92 1016.1
20260902114534 73 92 0.0 0.0 0.00 0.00 0.00 91 1015.9
20260902113018 74 92 0.0 0.0 0.00 0.00 0.00 91 1015.7
20260902111552 74 92 0.0 0.0 0.00 0.00 0.00 91 1015.7
20260902110034 74 92 0.0 0.0 0.00 0.00 0.00 91 1015.6
20260902104517 74 92 0.0 0.0 0.00 0.00 0.00 90 1015.7
20260902103102 74 92 0.0 0.0 0.00 0.00 0.00 90 1015.5
20260902101533 74 92 0.0 0.0 0.00 0.00 0.00 90 1015.6
20260902100017 74 92 0.0 0.0 0.00 0.00 0.00 90 1015.3
20260902094556 74 92 0.0 0.0 0.00 0.00 0.00 90 1015.4
20260902094503 74 92 0.0 0.0 0.00 0.00 0.00 89 1015.4
20260902093038 75 92 0.0 0.0 0.00 0.00 0.00 90 1015.2
20260902091553 75 92 0.0 0.0 0.00 0.00 0.00 88 1015.1
20260902090104 75 92 0.0 0.0 0.00 0.00 0.00 88 1015.2
20260902084545 75 92 0.0 0.0 0.00 0.00 0.00 88 1015.1
20260902083020 75 92 0.0 0.0 0.00 0.00 0.00 88 1015.1
20260902081601 76 92 0.0 0.0 0.00 0.00 0.00 88 1015.2
20260902081502 75 92 0.0 0.0 0.00 0.00 0.00 88 1015.2
20260902080052 76 92 0.0 0.0 0.00 0.00 0.00 86 1015.1
20260902074527 76 92 0.0 0.0 0.00 0.00 0.00 86 1015.2
20260902073110 76 92 0.0 0.0 0.00 0.00 0.00 86 1015.2
20260902071554 77 92 0.0 0.0 0.00 0.00 0.00 85 1015.3
20260902070025 77 92 0.0 0.0 0.00 0.00 0.00 84 1015.3
20260902064608 77 92 0.0 0.0 0.00 0.00 0.00 82 1015.3
20260902064502 77 92 0.0 0.0 0.00 0.00 0.00 82 1015.3
20260902063046 77 92 0.0 0.0 0.00 0.00 0.00 82 1015.3
20260902061539 78 92 0.0 0.0 0.00 0.00 0.00 83 1015.1
20260902060011 78 92 0.0 0.0 0.00 0.00 0.00 81 1015.1
20260902054547 78 92 0.0 0.0 0.00 0.00 0.00 81 1014.9
20260902053025 79 92 0.0 0.0 0.00 0.00 0.00 80 1014.9
20260902051512 79 92 0.0 0.0 0.00 0.00 0.00 79 1014.7
20260902050053 80 92 0.0 0.0 0.00 0.00 0.00 79 1014.6
20260902044533 80 92 0.0 0.0 0.00 0.00 0.00 78 1014.7
20260902043016 80 92 0.0 0.0 0.00 0.00 0.00 78 1014.6
20260902041551 80 92 0.0 0.0 0.00 0.00 0.00 77 1014.6
20260902040037 81 92 0.0 0.0 0.00 0.00 0.00 76 1014.7
20260902034515 81 92 0.0 0.0 0.00 0.00 0.00 76 1014.7
20260902033055 81 92 0.0 0.0 0.00 0.00 0.00 76 1014.7